Flag for Uruguay Weather past 2 weeks in Maldonado, Uruguay

Now
57 °F

Partly cloudy.


Feels Like: 54 °F
Forecast: 51 / 62 °F
Wind: 14 mph from South

Location: Capitan Corbeta

Current Time: May 24, 2015 at 6:41:22 AM

Latest Report: May 24, 2015 at 6:00 AM


Visibility: N/A

Pressure: 29.95 "Hg

Humidity: 67%

Dew point: 46 °F

Location of MaldonadoLocation

Historic Weather in Maldonado — Graph

°F

Maldonado temperature yesterday

Maximum temperature yesterday: 70 °F (at 7:04 AM)
Minimum temperature yesterday: 59 °F (at 11:00 PM)
Average temperature yesterday: 64 °F

Past Weeks' High & Low Weather Summary

 TemperatureHumidityPressure
High82 °F (May 21, 2:00 PM)100% (May 15, 6:00 AM)30.30 "Hg (May 15, 6:00 AM)
Low43 °F (May 9, 7:00 AM)42% (May 21, 2:00 PM)29.65 "Hg (May 23, 3:00 PM)
Average63 °F80%30.09 "Hg
* Reported May 9 3:00 AM — May 24 3:00 AM, Maldonado, Weather by CustomWeather, © 2015

Note: Actual official high and low records may vary slightly from our data, if they occured in-between our weather recording intervals... More about our weather records

Advertising

Maldonado weather history for previous 24 hours

 ConditionsComfort  
Time TempWeatherWind HumidityBarometerVisibility
3:00 AM
Sun, May 24
59 °FPartly cloudy.15 mph72%29.92 "HgN/A
2:00 AM61 °FPartly cloudy.21 mph68%29.89 "HgN/A
1:00 AM61 °FPartly cloudy.21 mph68%29.89 "HgN/A
12:00 AM59 °FPartly cloudy.16 mph72%29.89 "HgN/A
11:00 PM
Sat, May 23
59 °FPartly cloudy.15 mph68%29.86 "HgN/A
10:00 PM63 °FPartly cloudy.17 mph68%29.86 "HgN/A
9:00 PM63 °FPartly cloudy.16 mph73%29.83 "HgN/A
8:00 PM61 °FPassing clouds.14 mph88%29.80 "HgN/A
7:00 PM63 °FPassing clouds.14 mph88%29.77 "HgN/A
6:00 PM64 °FPassing clouds.17 mph88%29.71 "Hg6 mi
5:00 PM64 °FPartly cloudy.6 mph88%29.68 "Hg6 mi
4:00 PM64 °FPartly sunny.No wind88%29.68 "Hg6 mi
3:00 PM64 °FMore clouds than sun.5 mph88%29.65 "Hg5 mi
2:00 PM64 °FDrizzle. Mostly cloudy.12 mph94%29.68 "Hg3 mi
1:00 PM64 °FFog.17 mph88%29.71 "Hg3 mi
12:00 PM66 °FDrizzle. Mostly cloudy.9 mph88%29.71 "Hg3 mi
11:00 AM68 °FMostly cloudy.No wind88%29.71 "HgN/A
10:00 AM66 °FLight rain. Mostly cloudy.No wind83%29.74 "Hg6 mi
9:00 AM68 °FRain. Mostly cloudy.5 mph83%29.74 "Hg3 mi
8:00 AM68 °FMostly cloudy.5 mph83%29.74 "HgN/A
7:04 AM70 °FLight rain. Broken clouds.No wind78%29.77 "HgN/A
6:00 AM68 °FClear.3 mph83%29.74 "Hg10 mi
Weather by CustomWeather, © 2015

See weather overviewHow to use our weather pages